Location: Barcelona
(41.3829°N, 2.1774°E)
Time: 01:06:33
(UTC+00:00)

Hubble Space Telescope - Visible Passes

Search period start: 14 February 2026 00:00
Search period end: 24 February 2026 00:00
Orbit: 478 x 480 km, 28.5° (Epoch: 10 February)

Date Brightness Start Highest point End Pass type
(mag) Time Alt. Az. Time Alt. Az. Time Alt. Az.
21 Feb 3.1 06:04:11 10° SSW 06:05:30 11° S 06:06:49 10° SSE visible
22 Feb 3.0 05:33:50 10° SSW 05:35:09 11° S 05:36:28 10° SSE visible
23 Feb 3.0 05:03:56 11° SSW 05:04:48 11° S 05:06:07 10° SSE visible
